Content
SEND FEEDBACK

Daily
Averages
Monthly
Summary
United States of America

PUT IN BAY, OHIO


Home > North America > United States > Ohio
Elevation: 561 feet     Latitude: 41 39N     Longitude: 082 48W

WEATHER
 
SELECT A DAY
Number of Records: 123,102;   Date Range: 12/10/00 - 9/19/14
 
SHARE

PRINT THIS DATA

[ ← Previous Day ]
WEATHER ALMANAC - MARCH 16, 2013
[ Next Day → ]
[ °C ]   °F
Weather ElementAverageHighLow
Temperature29.7 °F34 °F (1:00 am)28 °F (8:00 am)
Dewpoint27 °F33.1 °F (1:00 am)23.7 °F (8:00 pm)
Humidity89.6 %99 % (2:00 am)69 % (8:00 pm)
Barometer29.86 in30.04 in (11:00 pm)29.77 in (7:00 am)
Wind Speed7.2 mph10.4 mph (4:00 am)
Wind Gust17.3 mph (3:00 pm)
Weather ElementAverage
Wind DirectionENE (60.4 °)

Weather ElementTotal
Precipitation0.18 in
Heating Degree Days34 (Base 65)
Averaged from 27 records on March 16, 2013
WEATHER CONDITIONS BREAKOUT
WIND DIRECTION BREAKOUT
WEATHER BY HOUR - MARCH 16, 2013
[ °C ]   °F
Local TimeTemperatureDewpointHumidityBarometerVisibilityWind DirectionWind SpeedGust SpeedPrecipitationEventsConditions
1:00 AM34.0 °F33.1 °F96 %29.84 inEast (80°)3.5 mph
2:00 AM32.0 °F31.0 °F97 %29.83 inENE (70°)8.1 mph
2:00 AM31.6 °F31.5 °F99 %29.83 inENE (70°)8.1 mph
3:00 AM30.2 °F29.1 °F96 %29.83 inENE (60°)9.2 mph
4:00 AM29.5 °F28.2 °F95 %29.79 inNE (50°)10.4 mph0.01 in
5:00 AM29.1 °F27.9 °F95 %29.79 inNE (50°)8.1 mph0.02 in
6:00 AM29.1 °F28.2 °F96 %29.78 inNE (50°)9.2 mph0.04 in
7:00 AM29.3 °F28.4 °F96 %29.77 inENE (70°)8.1 mph0.02 in
8:00 AM28.0 °F27.0 °F94 %29.77 inENE (70°)9.2 mph
8:00 AM28.0 °F27.0 °F96 %29.77 inENE (70°)9.2 mph0.04 in
9:00 AM28.6 °F27.5 °F96 %29.78 inENE (70°)9.2 mph0.04 in
10:00 AM28.8 °F27.5 °F95 %29.78 inENE (60°)8.1 mph0.01 in
11:00 AM28.8 °F26.8 °F92 %29.78 inNE (50°)10.4 mph
12:00 PM28.6 °F26.6 °F92 %29.78 inNE (40°)10.4 mph
1:00 PM28.6 °F27.0 °F94 %29.82 inNNE (30°)10.4 mph
2:00 PM29.0 °F27.0 °F91 %29.86 inNNE (30°)10.4 mph
2:00 PM28.9 °F27.3 °F94 %29.86 inNNE (30°)10.4 mph
3:00 PM29.7 °F26.6 °F88 %29.87 inNNE (20°)10.4 mph17.3 mph
4:00 PM30.4 °F25.3 °F82 %29.89 inNNE (20°)9.2 mph
5:00 PM30.7 °F25.3 °F80 %29.92 inNNE (20°)6.9 mph
6:00 PM30.7 °F25.2 °F80 %29.95 inNNE (30°)4.6 mph
7:00 PM30.4 °F24.8 °F80 %29.97 inNNE (30°)4.6 mph
8:00 PM30.0 °F24.0 °F69 %30.00 inNNE (30°)2.3 mph
8:00 PM29.8 °F23.7 °F78 %30.00 inNNE (30°)2.3 mph
9:00 PM29.1 °F23.9 °F81 %30.01 inSW (220°)1.2 mph
10:00 PM29.3 °F24.8 °F83 %30.03 inCalm
11:00 PM29.5 °F25.2 °F84 %30.04 inWest (280°)1.2 mph
Hourly data recorded from CXHA, located miles away from Put In Bay, Ohio







STORIES FROM OUR PARTNERS